Tracking 29892 objects as of 21-Nov-2024
HD Live streaming from Space Station
objects crossing your sky now

STARLINK-30289

Track STARLINK-30289 now!
10-day predictions
STARLINK-30289 is classified as:


NORAD ID: 57653
Int'l Code: 2023-122X
Perigee: 565.1 km
Apogee: 567.3 km
Inclination: 43.0 °
Period: 95.8 minutes
Semi major axis: 6937 km
RCS: Unknown
Launch date: August 17, 2023
Source: United States (US)
Launch site: AIR FORCE EASTERN TEST RANGE (AFETR)
Your satellite tracking list
Your tracking list is empty




NASA's NSSDC Master Catalog

Two Line Element Set (TLE):
1 57653U 23122X   24325.89193735  .00000115  00000-0  23625-4 0  9996
2 57653  43.0029 136.0691 0001545 267.6439  92.4226 15.02537178 71051
Source of the keplerian elements: AFSPC